Weather History for KCMA - October, 2010

Change the Weather History Date:

Tuesday, October 26, 2010

  Actual Average Record
Temperature  
Mean Temperature 61 °F 62 °F  
Max Temperature 74 °F 73 °F 93 °F (1983)
Min Temperature 48 °F 51 °F 40 °F (1954)
Degree Days  
Heating Degree Days 4 4  
Month to date heating degree days 29 71  
Since 1 July heating degree days 95 103  
Cooling Degree Days 0 1  
Month to date cooling degree days 28 26  
Year to date cooling degree days 214 309  
Growing Degree Days 10 (Base 50)    
Moisture  
Dew Point 43 °F    
Average Humidity 55    
Maximum Humidity 80    
Minimum Humidity 29    
Precipitation  
Precipitation 0.00 in 0.04 in 1.02 in (2004)
Month to date precipitation 1.24 0.46  
Year to date precipitation 9.12 11.68  
Since 1 July precipitation 1.25 0.70  
Sea Level Pressure  
Sea Level Pressure 29.92 in    
Wind  
Wind Speed 4 mph (NNE)    
Max Wind Speed 13 mph    
Max Gust Speed 15 mph    
Visibility 10 miles    
Events      
T = Trace of Precipitation, MM = Missing Value Source: NWS Daily Summary

Daily Weather History Graph

Daily Weather History Graph

Search for Another Location

Airport or City:

Trip Planner

Search our weather history database for the weather conditions in past years. The results will help you decide how hot, cold, wet, or windy it might be!

Date:

Astronomy

Oct. 26, 2010 Rise Set
Actual Time 7:10 AM PDT 6:09 PM PDT
Civil Twilight 6:45 AM PDT 6:34 PM PDT
Nautical Twilight 6:15 AM PDT 7:04 PM PDT
Astronomical Twilight 5:46 AM PDT 7:33 PM PDT
Moon 8:46 PM PDT (10/26) 10:45 AM PDT (10/26)
Length of Visible Light 11h 49m
Length of Day
10h 58m
Waning Gibbous, 86% of the Moon is Illuminated
Oct 26
Waning Gibbous
Oct 30
Last Quarter
Nov 5
New
Nov 13
First Quarter
Nov 21
Full

Hourly Weather History & Observations

Time (PDT) Temp. Dew Point Humidity Pressure Visibility Wind Dir Wind Speed Gust Speed Precip Events Conditions
12:55 AM 54.0 °F 45.0 °F 72% 29.93 in 10.0 mi WNW 3.5 mph - N/A   Clear
1:55 AM 53.1 °F 44.1 °F 71% 29.92 in 10.0 mi Calm Calm - N/A   Clear
2:55 AM 53.1 °F 43.0 °F 69% 29.92 in 10.0 mi NE 3.5 mph - N/A   Clear
3:55 AM 51.1 °F 43.0 °F 74% 29.91 in 10.0 mi Calm Calm - N/A   Clear
4:55 AM 50.0 °F 43.0 °F 77% 29.91 in 10.0 mi ENE 3.5 mph - N/A   Clear
5:55 AM 48.9 °F 42.1 °F 77% 29.92 in 10.0 mi Calm Calm - N/A   Clear
6:55 AM 51.1 °F 41.0 °F 68% 29.93 in 10.0 mi NE 3.5 mph - N/A   Clear
7:55 AM 51.1 °F 43.0 °F 74% 29.94 in 10.0 mi WNW 4.6 mph - N/A   Clear
8:55 AM 62.1 °F 43.0 °F 50% 29.96 in 10.0 mi NNE 4.6 mph - N/A   Clear
9:55 AM 68.0 °F 41.0 °F 37% 29.96 in 10.0 mi East 4.6 mph - N/A   Clear
10:55 AM 69.1 °F 37.9 °F 32% 29.95 in 10.0 mi Calm Calm - N/A   Clear
11:55 AM 71.1 °F 41.0 °F 34% 29.94 in 10.0 mi Variable 3.5 mph - N/A   Clear
12:55 PM 72.0 °F 43.0 °F 35% 29.93 in 10.0 mi WSW 9.2 mph - N/A   Clear
1:55 PM 72.0 °F 37.9 °F 29% 29.91 in 10.0 mi Variable 6.9 mph - N/A   Clear
2:55 PM 72.0 °F 42.1 °F 34% 29.88 in 10.0 mi SSW 5.8 mph - N/A   Clear
3:55 PM 72.0 °F 52.0 °F 49% 29.87 in 10.0 mi South 6.9 mph - N/A   Clear
4:55 PM 72.0 °F 42.1 °F 34% 29.86 in 10.0 mi West 6.9 mph - N/A   Clear
5:55 PM 66.9 °F 48.0 °F 51% 29.86 in 10.0 mi West 3.5 mph - N/A   Clear
6:55 PM 63.0 °F 53.1 °F 70% 29.87 in 10.0 mi North 3.5 mph - N/A   Clear
7:55 PM 61.0 °F 51.1 °F 70% 29.89 in 10.0 mi ENE 5.8 mph - N/A   Clear
8:55 PM 61.0 °F 36.0 °F 39% 29.90 in 10.0 mi ENE 12.7 mph - N/A   Clear
9:55 PM 61.0 °F 35.1 °F 38% 29.93 in 10.0 mi ENE 6.9 mph - N/A   Clear
10:55 PM 57.9 °F 37.0 °F 46% 29.94 in 10.0 mi NE 4.6 mph - N/A   Clear
11:55 PM 57.9 °F 37.0 °F 46% 29.95 in 10.0 mi Calm Calm - N/A   Clear